Location: eljas
(40.1958°N, 6.8661°W)
Time: 15:02:32
(UTC+02:00)

ISS - All Passes

Search period start: 27 June 2016 00:00
Search period end: 07 July 2016 00:00
Orbit: 402 x 403 km, 51.6° (Epoch: 27 June)

Date Brightness Start Highest point End Pass type
(mag) Time Alt. Az. Time Alt. Az. Time Alt. Az.
27 Jun - 10:49:26 10° SSW 10:52:34 46° SE 10:55:44 10° ENE daylight
27 Jun - 12:26:25 10° W 12:29:09 24° NNW 12:31:54 10° NNE daylight
27 Jun - 14:05:17 10° NNW 14:06:30 12° N 14:07:42 10° NNE daylight
27 Jun - 15:41:59 10° NNW 15:44:01 15° NNE 15:46:03 10° NE daylight
27 Jun - 17:17:46 10° NW 17:21:00 59° NE 17:24:13 10° ESE daylight
27 Jun - 18:55:16 10° W 18:57:06 14° SW 18:58:55 10° SSW daylight
28 Jun - 09:57:17 10° S 09:59:57 23° SE 10:02:37 10° ENE daylight
28 Jun - 11:33:10 10° W 11:36:15 38° NNW 11:39:20 10° NE daylight
28 Jun - 13:11:46 10° NW 13:13:24 13° N 13:15:03 10° NNE daylight
28 Jun - 14:49:26 10° NNW 14:50:57 13° N 14:52:29 10° NE daylight
28 Jun - 16:25:08 10° NW 16:28:10 34° NNE 16:31:10 10° E daylight
28 Jun - 18:01:42 10° WNW 18:04:32 27° SW 18:07:21 10° SSE daylight
29 Jun - 09:06:04 10° SSE 09:07:23 12° SE 09:08:44 10° ESE daylight
29 Jun - 10:40:11 10° WSW 10:43:25 70° NW 10:46:42 10° NE daylight
29 Jun - 12:18:12 10° WNW 12:20:21 16° NNW 12:22:30 10° NNE daylight
29 Jun - 13:56:43 10° NNW 13:57:51 11° N 13:59:00 10° NNE daylight
29 Jun - 15:32:35 10° NNW 15:35:14 22° NNE 15:37:53 10° ENE daylight
29 Jun - 17:08:40 10° WNW 17:11:53 56° SW 17:15:04 10° SE daylight
30 Jun - 09:47:29 10° SW 09:50:41 58° SE 09:53:53 10° ENE daylight
30 Jun - 11:24:43 10° WNW 11:27:20 22° NNW 11:29:58 10° NNE daylight
30 Jun - 13:03:36 10° NNW 13:04:43 11° N 13:05:51 10° NNE daylight
30 Jun - 14:40:02 10° NNW 14:42:13 16° NNE 14:44:25 10° ENE daylight
30 Jun - 16:15:52 10° NW 16:19:08 72° NE 16:22:23 10° ESE daylight
30 Jun - 17:53:57 10° WSW 17:55:09 12° SW 17:56:20 10° SSW daylight
01 Jul - 08:55:09 10° SSW 08:58:00 28° SE 09:00:52 10° ENE daylight
01 Jul - 10:31:24 10° W 10:34:23 33° NNW 10:37:23 10° NE daylight
01 Jul - 12:10:06 10° NW 12:11:36 12° N 12:13:06 10° NNE daylight
01 Jul - 13:47:28 10° NNW 13:49:09 13° NNE 13:50:49 10° NE daylight
01 Jul - 15:23:11 10° NW 15:26:17 39° NNE 15:29:23 10° ESE daylight
01 Jul - 16:59:57 10° W 17:02:35 22° SW 17:05:12 10° S daylight
02 Jul - 08:03:30 10° SSE 08:05:24 15° SE 08:07:19 10° E daylight
02 Jul - 09:38:18 10° WSW 09:41:31 57° NW 09:44:45 10° NE daylight
02 Jul - 11:16:30 10° NW 11:18:30 15° NNW 11:20:30 10° NNE daylight
02 Jul - 12:54:47 10° NNW 12:56:01 12° N 12:57:15 10° NNE daylight
02 Jul - 14:30:35 10° NNW 14:33:22 25° NNE 14:36:07 10° E daylight
02 Jul - 16:06:47 10° WNW 16:09:55 45° SW 16:13:03 10° SSE daylight
03 Jul - 08:45:28 10° SW 08:48:42 73° SE 08:51:58 10° ENE daylight
03 Jul - 10:22:58 10° WNW 10:25:26 20° NNW 10:27:57 10° NNE daylight
03 Jul - 12:01:47 10° NNW 12:02:52 11° N 12:03:58 10° NNE daylight
03 Jul - 13:38:01 10° NNW 13:40:21 18° NNE 13:42:40 10° ENE daylight
03 Jul - 15:13:54 10° NW 15:17:10 88° NE 15:20:26 10° SE daylight
04 Jul - 07:52:59 10° SSW 07:55:59 35° SE 07:58:59 10° ENE daylight
04 Jul - 09:29:32 10° W 09:32:27 29° NNW 09:35:21 10° NE daylight
04 Jul - 11:08:21 10° NNW 11:09:43 12° N 11:11:05 10° NNE daylight
04 Jul - 12:45:26 10° NNW 12:47:15 14° NNE 12:49:05 10° NE daylight
04 Jul - 14:21:09 10° NW 14:24:20 46° NNE 14:27:29 10° ESE daylight
04 Jul - 15:58:10 10° W 16:00:32 19° SW 16:02:53 10° S daylight
05 Jul - 07:01:02 10° S 07:03:19 18° SE 07:05:37 10° E daylight
05 Jul - 08:36:21 10° WSW 08:39:31 48° NNW 08:42:42 10° NE daylight
05 Jul - 10:14:44 10° NW 10:16:34 14° NNW 10:18:25 10° NNE daylight
05 Jul - 11:52:46 10° NNW 11:54:07 12° N 11:55:27 10° NNE daylight
05 Jul - 13:28:30 10° NW 13:31:23 28° NNE 13:34:16 10° E daylight
05 Jul - 15:04:50 10° WNW 15:07:52 36° SW 15:10:54 10° SSE daylight
06 Jul - 07:43:24 10° SW 07:46:39 89° SE 07:49:56 10° NE daylight
06 Jul - 09:21:07 10° WNW 09:23:28 18° NNW 09:25:49 10° NNE daylight
06 Jul - 10:59:51 10° NNW 11:00:56 11° N 11:02:01 10° NNE daylight
06 Jul - 12:35:53 10° NNW 12:38:22 19° NNE 12:40:50 10° ENE daylight
06 Jul - 14:11:50 10° NW 14:15:07 76° SW 14:18:22 10° SE daylight
